This is the latest recevied weather packets stored in our database for station/object F6BIJ-13. If no packets are shown the sender has not sent any weather packets the latest 10 day(s).
| Time | Temp. | Humidity | Pressure | Rain* | Wind** | Luminosity | Snow |
|---|---|---|---|---|---|---|---|
| 1778077117 | 15° C | 71% | 1011.8 hPa | 0 mm | - | - | - |
| 1778076758 | 15° C | 70% | 1011.9 hPa | 0 mm | - | - | - |
| 1778076397 | 15° C | 68% | 1011.9 hPa | 0 mm | - | - | - |
| 1778076037 | 15° C | 74% | 1012 hPa | 0 mm | - | - | - |
| 1778075677 | 14.44° C | 66% | 1012 hPa | 0 mm | - | - | - |
| 1778075317 | 15° C | 71% | 1012 hPa | 0 mm | - | - | - |
| 1778074957 | 15.56° C | 65% | 1012 hPa | 0 mm | - | - | - |
| 1778074597 | 16.11° C | 66% | 1012 hPa | 0 mm | - | - | - |
| 1778074237 | 16.11° C | 66% | 1012.1 hPa | 0 mm | - | - | - |
| 1778073877 | 15° C | 69% | 1012.2 hPa | 0 mm | - | - | - |
| 1778073517 | 15° C | 69% | 1012.2 hPa | 0 mm | - | - | - |
| 1778073157 | 16.67° C | 65% | 1012.3 hPa | 0 mm | - | - | - |
| 1778072797 | 16.67° C | 69% | 1012.2 hPa | 0 mm | - | - | - |
| 1778072437 | 15.56° C | 65% | 1012.4 hPa | 0 mm | - | - | - |
| 1778072077 | 14.44° C | 70% | 1012.4 hPa | 0 mm | - | - | - |
| 1778071716 | 14.44° C | 71% | 1012.4 hPa | 0 mm | - | - | - |
| 1778071357 | 14.44° C | 74% | 1012.4 hPa | 0 mm | - | - | - |
| 1778070997 | 15° C | 74% | 1012.5 hPa | 0 mm | - | - | - |
| 1778070637 | 14.44° C | 79% | 1012.4 hPa | 0 mm | - | - | - |
| 1778070277 | 13.33° C | 71% | 1012.4 hPa | 0 mm | - | - | - |
| 1778069918 | 13.33° C | 74% | 1012.5 hPa | 0 mm | - | - | - |
| 1778069557 | 13.33° C | 76% | 1012.5 hPa | 0 mm | - | - | - |
| 1778069197 | 13.33° C | 75% | 1012.6 hPa | 0 mm | - | - | - |
| 1778068837 | 13.33° C | 78% | 1012.5 hPa | 0 mm | - | - | - |
| 1778068477 | 14.44° C | 86% | 1012.6 hPa | 0 mm | - | - | - |
* Rain latest 24 hours (hover to see other rain measurements)
** Current wind speed in m/s (hover to see current wind gust speed)